Wind_Speed
9 9 9 8 7 5 2 4 3 2 5 5 6 6 4 1 4 6 4 5 5 5 4 4 4 3 3 3 3 3 4 5 5 5 6 6 7 7 8 9 9 10 11 11 10 8 7 6 6
8 8 7 6 6 5 2 1 1 2 2 2 3 3 3 2 2 4 4 5 6 6 6 6 5 5 5 5 5 5 5 5 5 5 5 6 6 7 8 8 9 10 10 10 10 9 8 6 5
7 7 6 5 6 5 3 3 2 2 2 2 2 3 3 3 4 4 5 6 7 7 7 7 7 6 6 6 6 6 6 5 5 6 6 7 7 7 8 8 9 9 10 10 10 9 8 7 6
8 9 7 7 7 5 4 4 3 3 3 4 4 3 4 5 6 6 7 8 8 8 8 8 7 7 7 7 6 6 6 7 7 8 8 9 9 9 9 9 10 10 10 10 10 9 8 8 8
10 9 9 10 11 8 7 7 5 4 5 5 5 5 5 7 8 8 9 9 9 9 9 8 8 8 8 7 7 7 8 9 9 10 11 12 12 12 12 12 12 13 13 12 11 11 10 10 10
11 10 10 12 13 9 10 10 8 6 6 6 7 7 6 7 8 9 9 10 10 9 9 8 8 8 8 8 9 10 11 12 12 13 13 14 14 15 15 16 16 16 16 15 15 14 14 14 13
14 11 10 11 11 8 10 12 13 12 8 6 7 9 9 8 9 9 10 10 10 9 9 9 9 10 11 11 12 13 14 15 15 16 16 16 17 18 19 19 19 19 19 19 18 18 18 18 17
16 15 12 12 11 8 8 12 14 14 13 9 9 12 14 11 10 10 11 11 10 10 10 11 12 13 14 14 15 15 16 16 17 17 18 19 19 20 21 22 22 22 22 22 22 21 21 21 21
17 16 15 14 14 11 8 11 15 15 14 13 13 15 15 15 13 11 12 13 12 12 14 16 17 17 17 17 17 17 17 18 18 19 19 20 21 22 23 24 24 25 24 25 25 24 25 25 25
18 17 18 19 18 16 12 10 15 15 15 16 16 18 20 18 15 12 12 14 16 17 19 20 21 21 21 20 20 20 20 20 21 21 21 22 22 23 24 25 26 26 26 26 26 26 27 27 27
19 19 22 24 22 21 18 15 18 19 18 18 18 20 22 22 19 17 15 17 21 24 24 25 25 25 24 23 23 22 23 23 23 23 23 23 23 24 24 25 26 26 26 26 27 27 27 27 27
20 19 25 28 28 27 24 21 21 22 23 23 23 24 25 25 24 22 22 22 24 27 29 29 29 28 28 27 26 26 25 26 26 25 25 24 24 24 23 23 24 25 26 26 26 26 25 25 25
19 20 24 27 30 30 29 27 26 26 26 28 28 29 30 30 30 28 28 29 28 29 31 33 32 32 31 30 30 29 28 28 27 25 25 24 24 25 25 24 24 24 24 25 25 25 25 25 24
21 21 20 21 25 28 30 30 29 28 29 30 30 31 31 32 32 31 31 32 32 34 35 36 35 35 34 32 32 30 29 28 27 25 25 25 25 25 26 25 25 24 24 24 24 24 24 23 23
20 18 16 17 20 22 26 27 25 25 25 26 27 29 31 32 34 34 35 36 37 39 42 41 40 40 38 35 33 32 30 28 27 26 26 26 25 26 25 25 25 24 24 24 24 23 23 22 21
18 16 13 12 14 16 21 21 19 21 23 25 28 30 32 33 36 37 38 39 40 43 47 47 45 39 37 36 35 32 30 29 27 27 27 27 26 26 25 25 24 24 23 23 23 22 21 20 19
16 14 13 12 12 13 16 15 15 20 23 25 29 31 34 35 38 39 40 41 43 45 47 47 43 38 36 36 34 32 30 29 29 27 27 27 26 26 25 25 24 23 23 22 22 21 20 19 18
13 12 11 11 12 12 14 16 19 23 26 29 31 33 35 38 39 41 42 43 43 44 46 44 41 39 33 29 28 27 26 27 26 26 26 25 26 26 25 25 24 23 22 22 21 20 19 18 17
10 11 13 14 13 13 14 18 23 27 30 33 36 37 39 41 42 42 43 43 43 43 44 45 41 35 28 25 27 27 25 24 23 25 25 24 25 25 25 24 24 23 23 22 21 20 19 18 17
10 14 18 19 19 18 20 24 27 30 33 35 36 37 38 40 41 41 41 41 42 43 45 43 38 32 28 25 22 21 20 22 24 24 24 25 26 25 24 24 24 24 23 22 22 21 20 20 18
12 15 18 21 24 24 25 28 30 32 34 36 36 35 35 34 35 37 39 40 42 43 41 39 35 32 29 26 22 21 20 21 22 21 21 23 24 25 25 24 24 24 24 23 23 22 22 21 20
8 12 14 17 21 24 27 29 32 33 34 36 35 32 30 31 33 36 38 39 40 40 38 36 35 33 31 26 24 23 21 22 21 21 22 22 22 24 25 25 26 25 25 26 25 25 23 23 23
6 8 11 12 14 17 19 23 26 28 31 32 33 32 30 31 33 35 37 38 40 40 40 38 37 34 33 30 28 27 26 25 25 25 24 24 24 25 26 27 28 28 28 28 29 28 26 25 25
10 11 11 11 10 11 15 18 21 24 25 24 27 30 31 31 32 35 38 40 42 43 43 43 41 39 37 35 34 33 32 31 31 29 28 27 28 28 29 29 29 30 30 31 31 31 30 29 27
9 11 10 8 10 12 15 18 20 22 22 22 21 23 25 27 30 34 38 41 44 46 47 47 46 45 44 42 41 40 39 38 37 36 36 35 34 33 33 34 33 33 33 33 33 33 33 32 30
10 12 13 13 15 16 17 19 20 22 24 26 26 28 30 31 34 38 41 44 46 48 49 50 50 50 49 48 48 47 46 45 44 43 42 42 42 41 40 40 38 37 37 37 37 36 36 35 34
14 15 15 17 17 18 20 21 22 25 28 30 32 34 36 39 42 46 48 50 52 53 54 55 55 54 54 54 53 52 52 51 50 49 48 48 47 47 46 46 45 43 42 42 41 40 39 39 37
17 18 18 19 19 21 22 24 27 29 31 34 37 40 42 45 48 51 53 55 57 59 61 61 62 61 60 59 58 58 57 57 56 55 55 54 53 52 52 51 51 50 48 47 46 44 43 42 40
15 14 16 18 20 23 26 28 30 33 36 39 41 43 46 49 51 53 56 58 60 62 64 66 67 67 66 65 64 64 63 62 61 61 60 59 58 58 57 56 56 55 54 52 50 49 47 45 43
16 16 18 19 22 25 29 32 34 37 40 43 45 48 50 53 56 58 60 62 64 66 68 69 70 70 69 68 67 65 64 63 62 62 63 63 63 63 62 62 61 59 58 57 55 53 51 49 47
Wind_Direction
140 141 144 145 148 158 151 66 41 312 305 314 313 319 350 23 197 207 206 205 217 225 230 237 248 259 271 288 305 321 331 338 340 344 347 350 352 351 350 353 357 1 3 2 0 360 1 2 7
151 156 161 162 184 199 199 138 315 324 360 352 320 309 333 344 243 223 211 219 229 237 239 245 254 263 273 284 292 300 308 315 319 322 326 327 328 330 333 335 339 346 350 352 352 353 354 358 0
174 182 182 196 215 229 225 220 250 306 344 325 291 291 305 290 276 248 236 237 237 240 245 252 258 266 275 282 287 292 296 299 301 302 304 305 304 306 310 315 320 327 335 339 341 343 346 348 352
201 206 211 222 233 259 269 283 270 296 333 316 292 285 286 277 275 267 258 256 254 255 256 258 261 267 272 276 278 282 286 287 289 292 293 293 291 289 291 294 300 307 314 320 322 324 327 331 334
220 225 234 251 263 280 286 286 259 279 307 304 301 295 290 279 274 271 268 267 267 267 264 263 264 267 270 272 273 276 280 283 285 287 287 286 284 283 283 285 288 293 298 302 303 303 305 308 311
227 232 243 266 279 292 306 304 295 287 291 289 294 295 294 281 276 272 269 270 269 267 267 266 269 274 276 278 278 279 281 282 282 282 282 281 279 279 280 281 284 287 290 292 292 291 292 294 295
226 226 237 257 271 295 307 303 296 293 277 274 289 293 292 285 278 272 267 265 264 265 268 272 277 281 283 284 283 283 282 282 281 280 280 279 278 277 278 279 281 283 285 285 284 283 284 285 286
230 223 226 242 254 281 303 300 292 290 282 284 296 304 299 285 274 266 265 262 261 268 275 280 284 286 287 286 285 285 284 283 282 281 280 279 278 277 277 277 278 279 280 281 281 280 281 281 282
237 225 221 232 244 259 280 291 285 285 288 291 298 306 306 298 278 261 263 270 272 275 281 284 286 288 287 287 288 287 287 286 285 283 282 281 280 279 278 278 277 277 277 278 278 278 278 279 279
242 226 221 234 241 250 256 267 277 281 284 291 299 303 304 301 294 274 266 278 284 282 281 282 283 286 286 288 290 291 292 292 291 288 286 284 282 281 279 278 277 277 276 276 276 276 277 277 277
246 228 222 230 238 246 249 251 261 271 278 287 293 297 301 304 300 289 278 275 282 283 281 279 280 283 286 288 290 293 295 295 294 292 289 286 284 282 280 279 279 278 277 276 275 275 275 277 278
255 239 230 231 238 244 246 247 253 264 274 282 286 290 295 297 296 293 288 280 279 280 279 278 278 281 284 286 288 291 294 296 295 293 289 286 284 282 281 279 278 278 278 277 276 276 276 276 276
261 252 245 244 246 250 254 254 253 258 269 275 279 283 286 288 289 289 288 286 283 276 275 276 275 277 280 284 287 289 290 291 292 291 288 286 284 283 281 279 277 276 275 274 274 274 275 275 275
260 259 257 256 254 254 257 260 259 261 264 268 272 275 281 284 286 287 286 286 282 278 278 276 273 271 271 274 278 280 282 284 285 284 282 280 280 280 279 277 276 274 272 269 268 268 270 272 272
260 262 260 258 256 254 253 255 258 262 265 267 271 274 277 280 283 285 285 286 286 284 283 280 276 269 266 263 264 268 271 273 275 276 274 274 275 277 277 277 275 274 272 270 266 265 264 265 267
253 250 241 243 246 244 249 255 255 258 264 267 270 274 277 281 284 286 287 289 290 292 289 283 277 268 263 257 254 257 261 264 268 271 271 273 275 276 278 278 276 273 271 269 266 263 262 262 264
245 237 225 221 229 232 242 250 252 258 264 267 271 276 279 282 285 286 288 290 292 294 294 285 288 281 272 261 258 256 255 258 264 268 271 274 277 279 280 279 276 273 270 266 262 260 261 262 264
237 237 228 227 230 237 242 245 249 253 258 264 270 275 278 282 285 287 289 294 296 298 301 301 297 294 290 274 260 257 255 257 262 268 271 273 277 278 278 276 273 271 269 264 258 256 257 259 264
233 230 226 229 233 236 238 238 240 244 251 259 268 275 279 281 283 287 291 297 301 305 305 308 308 305 298 288 274 266 259 258 260 266 266 270 273 275 274 271 269 268 265 260 254 253 255 256 259
242 239 232 229 237 237 235 236 238 243 251 260 269 274 277 280 284 288 293 297 300 302 304 308 312 309 305 295 288 275 272 265 268 266 264 268 269 270 270 267 264 263 260 255 251 252 255 256 258
245 249 246 239 238 244 247 249 252 256 261 266 270 273 275 281 286 289 292 295 297 301 305 308 309 309 307 303 292 291 285 285 281 276 271 268 267 266 265 262 261 259 256 252 250 252 255 257 259
266 266 265 257 250 249 253 260 265 268 270 270 271 272 272 278 282 286 288 291 295 299 303 305 307 306 305 302 296 293 290 288 287 282 279 271 268 267 264 261 259 256 253 251 250 251 254 257 260
324 309 296 285 267 258 257 268 277 280 279 275 270 270 273 272 276 281 285 288 292 296 301 303 304 303 302 300 298 294 290 287 285 283 280 274 271 267 262 259 258 256 253 251 250 251 253 255 259
334 326 314 301 288 275 274 283 291 298 295 288 276 271 273 273 274 281 286 289 293 297 300 302 303 303 301 299 296 292 288 284 281 278 275 273 269 264 261 259 257 256 254 253 253 253 254 255 257
333 332 328 312 301 301 300 301 304 308 314 316 306 298 294 292 289 290 292 294 296 298 300 301 302 301 300 297 294 290 286 282 278 275 272 269 266 262 259 257 255 255 254 254 254 255 255 256 257
326 324 328 331 329 324 319 315 314 314 318 318 317 313 308 304 300 298 297 296 297 298 299 299 299 298 296 294 291 288 284 281 278 274 271 268 265 262 259 255 253 252 252 252 252 253 255 256 257
320 313 320 322 323 323 324 323 319 317 318 318 317 314 311 307 305 304 303 302 301 300 299 298 296 294 292 290 287 284 282 279 276 273 270 267 264 262 260 257 254 252 250 250 250 251 253 254 256
315 311 308 311 319 325 326 326 325 323 322 320 317 314 312 310 309 307 306 305 304 302 301 299 297 295 292 288 285 282 279 276 274 271 269 266 264 261 259 257 254 252 251 249 249 250 251 252 254
317 314 311 313 318 320 323 323 323 322 321 319 317 315 313 312 310 309 308 307 305 304 302 300 299 297 294 291 288 284 280 276 272 269 266 264 262 259 257 256 254 253 252 250 249 249 250 250 252
318 319 321 320 320 320 317 317 321 321 321 319 318 316 315 314 313 312 310 309 307 305 303 302 300 298 297 294 292 288 285 280 275 271 266 262 259 257 255 254 253 252 251 251 249 249 248 249 250
Height
5931 5931 5931 5931 5931 5929 5928 5928 5928 5928 5928 5928 5927 5926 5925 5926 5926 5927 5924 5922 5921 5920 5919 5918 5918 5917 5916 5916 5915 5915 5915 5914 5914 5913 5912 5911 5910 5909 5907 5906 5905 5903 5902 5901 5899 5898 5897 5896 5895
5931 5931 5931 5931 5930 5928 5927 5926 5925 5926 5928 5927 5927 5926 5925 5924 5924 5923 5922 5921 5920 5919 5919 5918 5917 5917 5916 5915 5915 5915 5914 5914 5913 5912 5911 5910 5909 5908 5907 5905 5904 5903 5901 5900 5899 5897 5896 5895 5894
5931 5931 5931 5930 5929 5927 5926 5924 5923 5924 5925 5926 5926 5926 5925 5924 5923 5923 5922 5921 5920 5919 5918 5918 5917 5916 5916 5915 5914 5914 5913 5912 5911 5911 5910 5909 5908 5906 5905 5904 5903 5902 5901 5899 5898 5897 5895 5895 5894
5930 5931 5930 5930 5927 5926 5924 5923 5922 5922 5923 5924 5924 5924 5924 5923 5922 5922 5921 5920 5919 5918 5918 5917 5916 5916 5915 5914 5913 5913 5912 5911 5909 5908 5907 5907 5906 5905 5904 5903 5902 5900 5899 5898 5897 5896 5895 5894 5893
5929 5929 5929 5928 5926 5924 5923 5921 5919 5920 5920 5921 5922 5922 5923 5922 5920 5920 5920 5919 5918 5917 5917 5916 5915 5915 5914 5913 5912 5911 5910 5908 5907 5906 5905 5904 5903 5902 5901 5900 5899 5899 5898 5897 5896 5895 5893 5892 5892
5927 5928 5928 5926 5925 5922 5921 5920 5918 5917 5917 5918 5919 5920 5921 5920 5919 5918 5918 5917 5917 5916 5915 5915 5914 5913 5912 5911 5910 5909 5907 5906 5904 5903 5902 5901 5900 5899 5898 5897 5897 5896 5895 5894 5893 5892 5891 5890 5890
5925 5925 5925 5923 5922 5920 5920 5918 5917 5916 5915 5915 5917 5918 5919 5919 5917 5916 5916 5915 5915 5914 5914 5913 5912 5911 5910 5908 5907 5905 5904 5902 5901 5900 5898 5897 5896 5895 5895 5894 5893 5892 5891 5891 5890 5889 5888 5887 5887
5922 5923 5922 5920 5919 5918 5918 5916 5914 5913 5913 5913 5914 5915 5916 5917 5916 5915 5913 5913 5913 5913 5912 5911 5910 5908 5906 5905 5903 5901 5900 5898 5897 5895 5894 5893 5892 5891 5890 5889 5888 5888 5887 5886 5885 5885 5884 5883 5882
5919 5921 5919 5916 5915 5915 5915 5914 5912 5911 5910 5911 5911 5912 5912 5914 5914 5914 5913 5911 5912 5911 5910 5908 5906 5904 5902 5900 5899 5897 5896 5894 5893 5891 5890 5888 5887 5886 5885 5884 5883 5882 5882 5881 5880 5880 5879 5878 5877
5915 5917 5917 5914 5912 5911 5912 5912 5909 5909 5909 5908 5909 5909 5909 5909 5911 5913 5914 5912 5910 5908 5906 5904 5902 5900 5897 5896 5894 5892 5891 5889 5888 5886 5884 5883 5882 5881 5879 5878 5877 5876 5876 5875 5875 5874 5873 5873 5872
5909 5912 5912 5910 5908 5907 5908 5909 5907 5906 5906 5906 5907 5907 5907 5908 5908 5909 5911 5911 5908 5904 5902 5899 5896 5894 5892 5890 5888 5887 5885 5884 5882 5880 5879 5877 5876 5874 5873 5872 5871 5870 5870 5869 5869 5868 5868 5867 5866
5906 5907 5906 5905 5904 5903 5904 5905 5905 5904 5904 5904 5904 5904 5904 5904 5904 5904 5904 5905 5903 5899 5896 5892 5889 5887 5885 5884 5882 5880 5879 5878 5876 5874 5872 5871 5869 5868 5867 5866 5865 5864 5863 5863 5862 5862 5862 5861 5860
5901 5902 5902 5902 5901 5901 5901 5902 5902 5901 5901 5900 5900 5900 5900 5899 5899 5898 5897 5895 5894 5891 5886 5883 5879 5877 5876 5875 5874 5873 5872 5871 5869 5867 5866 5864 5863 5861 5861 5860 5859 5858 5857 5857 5856 5856 5855 5855 5855
5896 5896 5898 5899 5899 5898 5898 5898 5898 5898 5898 5897 5896 5896 5895 5893 5892 5891 5890 5887 5884 5881 5879 5876 5871 5866 5865 5865 5865 5865 5865 5864 5863 5861 5860 5858 5857 5855 5854 5853 5852 5852 5851 5850 5850 5850 5850 5849 5849
5891 5892 5894 5894 5893 5893 5892 5892 5893 5893 5892 5892 5891 5890 5888 5887 5886 5885 5883 5880 5877 5873 5870 5867 5862 5856 5852 5852 5853 5854 5854 5855 5855 5855 5853 5852 5850 5849 5847 5846 5845 5845 5844 5844 5844 5844 5844 5844 5844
5885 5886 5887 5887 5886 5886 5886 5887 5889 5887 5886 5886 5885 5884 5883 5882 5881 5879 5878 5875 5871 5866 5861 5856 5849 5843 5839 5840 5839 5841 5842 5844 5845 5845 5844 5844 5843 5841 5840 5839 5838 5837 5837 5837 5837 5837 5838 5838 5838
5880 5881 5882 5882 5881 5881 5881 5882 5883 5882 5882 5881 5881 5880 5878 5877 5875 5873 5871 5869 5864 5858 5851 5843 5838 5832 5830 5829 5828 5830 5832 5834 5835 5834 5835 5835 5834 5833 5833 5832 5831 5831 5830 5831 5831 5832 5832 5832 5832
5877 5878 5878 5877 5877 5878 5877 5877 5878 5877 5877 5877 5876 5874 5872 5870 5869 5866 5864 5860 5856 5851 5845 5837 5831 5825 5823 5821 5820 5820 5822 5824 5826 5827 5826 5826 5826 5826 5826 5826 5825 5825 5825 5825 5825 5826 5827 5827 5827
5873 5874 5873 5873 5874 5875 5873 5872 5871 5871 5871 5870 5870 5868 5866 5865 5862 5860 5856 5853 5848 5843 5838 5833 5826 5822 5819 5816 5815 5815 5816 5818 5820 5820 5819 5819 5820 5819 5819 5819 5819 5819 5819 5819 5820 5820 5821 5822 5822
5870 5869 5869 5870 5870 5871 5870 5868 5867 5867 5867 5865 5864 5862 5859 5857 5856 5853 5850 5846 5842 5838 5835 5831 5825 5821 5818 5816 5815 5813 5812 5812 5813 5813 5813 5813 5813 5813 5812 5812 5812 5813 5813 5814 5815 5815 5816 5816 5817
5866 5866 5866 5866 5866 5866 5866 5865 5864 5863 5863 5861 5859 5856 5853 5851 5849 5847 5844 5840 5836 5833 5829 5825 5822 5817 5815 5813 5811 5809 5808 5807 5807 5807 5807 5806 5806 5805 5805 5805 5806 5806 5807 5808 5809 5809 5810 5811 5811
5864 5863 5862 5862 5862 5862 5863 5861 5859 5858 5857 5855 5853 5850 5848 5845 5843 5841 5838 5835 5831 5827 5823 5819 5816 5813 5810 5807 5805 5804 5803 5802 5801 5800 5799 5799 5798 5798 5798 5798 5799 5799 5800 5801 5802 5803 5803 5804 5805
5862 5860 5859 5858 5858 5858 5858 5857 5855 5851 5849 5847 5845 5843 5841 5839 5836 5834 5830 5827 5823 5819 5815 5812 5809 5806 5803 5801 5799 5798 5797 5795 5794 5793 5793 5792 5792 5791 5791 5791 5791 5792 5792 5793 5794 5795 5796 5797 5798
5860 5859 5857 5856 5855 5855 5854 5852 5850 5845 5842 5839 5837 5835 5833 5831 5829 5826 5822 5818 5814 5809 5805 5802 5799 5796 5794 5792 5790 5789 5788 5787 5786 5785 5784 5784 5784 5783 5783 5783 5784 5784 5784 5785 5785 5787 5788 5789 5790
5859 5857 5855 5854 5853 5852 5850 5847 5846 5841 5837 5834 5831 5829 5825 5823 5820 5817 5814 5809 5804 5799 5795 5791 5787 5785 5783 5781 5780 5778 5777 5776 5775 5774 5774 5773 5773 5773 5774 5774 5775 5775 5775 5775 5776 5777 5779 5780 5781
5856 5855 5853 5851 5849 5847 5845 5843 5841 5837 5833 5830 5826 5823 5819 5815 5812 5808 5804 5799 5794 5789 5784 5780 5776 5773 5770 5768 5766 5764 5763 5762 5761 5761 5761 5761 5761 5761 5761 5762 5763 5764 5765 5766 5766 5767 5769 5770 5772
5855 5853 5851 5849 5847 5844 5841 5838 5836 5832 5827 5823 5819 5814 5810 5805 5801 5795 5790 5784 5779 5775 5770 5766 5762 5759 5756 5753 5750 5748 5746 5745 5745 5745 5745 5745 5746 5746 5747 5748 5749 5751 5752 5754 5755 5757 5758 5760 5762
5853 5851 5849 5846 5843 5840 5837 5834 5830 5825 5821 5816 5811 5806 5801 5795 5789 5783 5777 5770 5764 5758 5752 5747 5742 5739 5736 5734 5731 5729 5727 5725 5725 5725 5725 5726 5727 5729 5730 5732 5733 5735 5737 5740 5742 5745 5747 5749 5751
5851 5848 5845 5842 5840 5836 5833 5832 5826 5821 5816 5811 5805 5799 5793 5786 5780 5773 5765 5758 5750 5742 5735 5727 5721 5716 5712 5709 5707 5705 5703 5702 5702 5702 5703 5704 5706 5709 5711 5713 5716 5718 5721 5724 5727 5730 5733 5737 5740
5848 5845 5842 5840 5837 5833 5829 5828 5820 5815 5809 5803 5796 5789 5782 5775 5767 5759 5751 5743 5735 5726 5717 5709 5701 5694 5689 5684 5681 5679 5676 5675 5675 5675 5677 5679 5682 5685 5688 5692 5696 5699 5703 5706 5710 5715 5719 5723 5727